| time (UTC) | temp C | wind direction | speed KPH | gust KPH | rain 1hr cm | rain 24hr cm | rain mn cm | humidity % | barometer mb |
| 20260505170234 | 20 | 117 | 6.4 | 9.7 | 0.00 | 0.00 | 0.13 | 90 | 1004.4 |
| 20260505165734 | 20 | 85 | 6.4 | 12.9 | 0.00 | 0.00 | 0.13 | 90 | 1004.5 |
| 20260505165235 | 20 | 112 | 6.4 | 14.5 | 0.00 | 0.00 | 0.13 | 90 | 1004.3 |
| 20260505164734 | 20 | 88 | 8.0 | 14.5 | 0.00 | 0.00 | 0.13 | 91 | 1004.3 |
| 20260505164234 | 20 | 148 | 4.8 | 14.5 | 0.00 | 0.00 | 0.13 | 91 | 1004.3 |
| 20260505163735 | 20 | 101 | 9.7 | 14.5 | 0.00 | 0.00 | 0.13 | 92 | 1004.3 |
| 20260505163235 | 20 | 98 | 6.4 | 14.5 | 0.00 | 0.00 | 0.13 | 93 | 1004.3 |
| 20260505162746 | 19 | 109 | 11.3 | 14.5 | 0.00 | 0.00 | 0.13 | 93 | 1004.4 |
| 20260505162234 | 18 | 128 | 6.4 | 14.5 | 0.00 | 0.00 | 0.13 | 93 | 1004.4 |
| 20260505161735 | 18 | 115 | 6.4 | 14.5 | 0.00 | 0.00 | 0.13 | 93 | 1004.3 |
| 20260505161233 | 18 | 113 | 14.5 | 14.5 | 0.00 | 0.00 | 0.13 | 93 | 1004.4 |
| 20260505160733 | 18 | 140 | 11.3 | 17.7 | 0.00 | 0.00 | 0.13 | 94 | 1004.4 |
| 20260505160233 | 18 | 126 | 11.3 | 19.3 | 0.00 | 0.00 | 0.13 | 94 | 1004.3 |
| 20260505153234 | 17 | 93 | 6.4 | 19.3 | 0.00 | 0.00 | 0.13 | 94 | 1004.4 |
| 20260505152733 | 17 | 86 | 4.8 | 19.3 | 0.00 | 0.00 | 0.13 | 94 | 1004.7 |
| 20260505152234 | 17 | 71 | 9.7 | 19.3 | 0.00 | 0.00 | 0.13 | 94 | 1004.9 |
| 20260505151732 | 17 | 67 | 12.9 | 16.1 | 0.00 | 0.00 | 0.13 | 94 | 1004.9 |
| 20260505151232 | 17 | 96 | 11.3 | 17.7 | 0.00 | 0.00 | 0.13 | 94 | 1005.0 |
| 20260505150735 | 17 | 84 | 6.4 | 19.3 | 0.00 | 0.00 | 0.13 | 94 | 1004.9 |
| 20260505150232 | 17 | 61 | 8.0 | 19.3 | 0.00 | 0.00 | 0.13 | 94 | 1004.9 |
| 20260505140232 | 16 | 75 | 12.9 | 19.3 | 0.00 | 0.00 | 0.13 | 94 | 1005.5 |
| 20260505130229 | 16 | 86 | 8.0 | 22.5 | 0.00 | 0.00 | 0.13 | 93 | 1005.2 |
| 20260505124728 | 16 | 116 | 19.3 | 20.9 | 0.00 | 0.00 | 0.13 | 92 | 1005.1 |
| 20260505124229 | 16 | 86 | 12.9 | 19.3 | 0.00 | 0.00 | 0.13 | 92 | 1005.1 |
| 20260505123730 | 16 | 77 | 12.9 | 19.3 | 0.00 | 0.00 | 0.10 | 92 | 1005.2 |
| 20260505123230 | 16 | 78 | 12.9 | 19.3 | 0.00 | 0.00 | 0.10 | 92 | 1005.1 |
| 20260505122729 | 16 | 91 | 12.9 | 19.3 | 0.00 | 0.00 | 0.10 | 91 | 1005.1 |
| 20260505122228 | 16 | 71 | 9.7 | 19.3 | 0.00 | 0.00 | 0.10 | 91 | 1005.0 |
| 20260505121730 | 16 | 100 | 9.7 | 17.7 | 0.00 | 0.00 | 0.10 | 91 | 1004.9 |
| 20260505121228 | 16 | 88 | 8.0 | 17.7 | 0.00 | 0.00 | 0.08 | 90 | 1004.9 |
| 20260505120727 | 17 | 67 | 17.7 | 16.1 | 0.00 | 0.00 | 0.08 | 90 | 1004.7 |
| 20260505120226 | 17 | 73 | 12.9 | 19.3 | 0.00 | 0.00 | 0.08 | 89 | 1004.5 |
| 20260505115730 | 17 | 71 | 6.4 | 20.9 | 0.00 | 0.00 | 0.08 | 89 | 1004.5 |
| 20260505115227 | 17 | 82 | 6.4 | 20.9 | 0.00 | 0.00 | 0.08 | 88 | 1004.5 |
| 20260505114727 | 17 | 69 | 9.7 | 17.7 | 0.00 | 0.00 | 0.08 | 88 | 1004.4 |
| 20260505114228 | 17 | 76 | 8.0 | 17.7 | 0.00 | 0.00 | 0.08 | 88 | 1004.4 |
| 20260505113728 | 17 | 59 | 17.7 | 17.7 | 0.00 | 0.00 | 0.08 | 88 | 1004.3 |
| 20260505113226 | 17 | 59 | 8.0 | 16.1 | 0.00 | 0.00 | 0.08 | 87 | 1004.2 |
| 20260505112726 | 17 | 85 | 12.9 | 16.1 | 0.00 | 0.00 | 0.08 | 87 | 1004.2 |
| 20260505112226 | 17 | 63 | 12.9 | 16.1 | 0.00 | 0.00 | 0.08 | 87 | 1004.1 |
| 20260505111728 | 17 | 74 | 8.0 | 17.7 | 0.00 | 0.00 | 0.08 | 87 | 1004.1 |
| 20260505111226 | 17 | 63 | 9.7 | 17.7 | 0.00 | 0.00 | 0.08 | 87 | 1004.0 |
| 20260505110726 | 17 | 49 | 8.0 | 19.3 | 0.00 | 0.00 | 0.08 | 87 | 1004.0 |
| 20260505110225 | 17 | 80 | 6.4 | 19.3 | 0.00 | 0.00 | 0.08 | 87 | 1004.0 |
| 20260505101726 | 17 | 63 | 12.9 | 19.3 | 0.00 | 0.00 | 0.08 | 85 | 1003.7 |
| 20260505101224 | 17 | 68 | 9.7 | 16.1 | 0.00 | 0.00 | 0.08 | 85 | 1003.7 |
| 20260505100727 | 17 | 90 | 11.3 | 16.1 | 0.00 | 0.00 | 0.08 | 85 | 1003.8 |
| 20260505100226 | 17 | 73 | 6.4 | 16.1 | 0.00 | 0.00 | 0.08 | 85 | 1003.8 |
| 20260505095726 | 17 | 64 | 6.4 | 16.1 | 0.00 | 0.00 | 0.08 | 85 | 1003.9 |
| 20260505095223 | 17 | 65 | 9.7 | 17.7 | 0.00 | 0.00 | 0.08 | 85 | 1003.9 |
| 20260505094724 | 17 | 52 | 9.7 | 17.7 | 0.00 | 0.00 | 0.08 | 86 | 1003.9 |
| 20260505094226 | 16 | 82 | 8.0 | 17.7 | 0.00 | 0.00 | 0.08 | 87 | 1004.1 |
| 20260505093724 | 16 | 53 | 9.7 | 17.7 | 0.00 | 0.00 | 0.08 | 87 | 1004.0 |
| 20260505093223 | 16 | 67 | 16.1 | 17.7 | 0.00 | 0.00 | 0.08 | 87 | 1004.1 |
| 20260505092724 | 16 | 43 | 9.7 | 17.7 | 0.00 | 0.00 | 0.08 | 88 | 1004.1 |
| 20260505092223 | 16 | 49 | 14.5 | 17.7 | 0.00 | 0.00 | 0.08 | 89 | 1004.2 |
| 20260505091726 | 16 | 9 | 11.3 | 17.7 | 0.00 | 0.00 | 0.08 | 89 | 1004.4 |
| 20260505091223 | 16 | 13 | 6.4 | 14.5 | 0.00 | 0.00 | 0.08 | 89 | 1004.2 |
| 20260505090724 | 16 | 24 | 9.7 | 14.5 | 0.00 | 0.00 | 0.08 | 89 | 1004.0 |
| 20260505090224 | 16 | 24 | 8.0 | 12.9 | 0.00 | 0.00 | 0.08 | 88 | 1003.8 |
| 20260505085722 | 16 | 42 | 4.8 | 14.5 | 0.00 | 0.00 | 0.08 | 88 | 1003.7 |
| 20260505085222 | 16 | 55 | 8.0 | 14.5 | 0.00 | 0.00 | 0.08 | 88 | 1003.5 |
| 20260505084721 | 16 | 39 | 8.0 | 12.9 | 0.00 | 0.00 | 0.08 | 87 | 1003.4 |
| 20260505084222 | 16 | 46 | 6.4 | 12.9 | 0.00 | 0.00 | 0.08 | 87 | 1003.4 |
| 20260505083722 | 16 | 74 | 6.4 | 12.9 | 0.00 | 0.00 | 0.08 | 86 | 1003.3 |
| 20260505083223 | 16 | 69 | 4.8 | 12.9 | 0.00 | 0.00 | 0.08 | 86 | 1003.3 |
| 20260505082722 | 16 | 87 | 6.4 | 9.7 | 0.00 | 0.00 | 0.08 | 86 | 1002.7 |
| 20260505082222 | 16 | 84 | 1.6 | 12.9 | 0.00 | 0.00 | 0.08 | 86 | 1002.8 |
| 20260505081722 | 17 | 80 | 4.8 | 12.9 | 0.00 | 0.00 | 0.08 | 85 | 1002.7 |
| 20260505081223 | 17 | 87 | 8.0 | 16.1 | 0.00 | 0.00 | 0.08 | 84 | 1002.7 |
| 20260505080723 | 17 | 74 | 6.4 | 16.1 | 0.00 | 0.00 | 0.08 | 84 | 1002.7 |
| 20260505080223 | 17 | 69 | 12.9 | 16.1 | 0.00 | 0.00 | 0.08 | 83 | 1002.8 |
| 20260505075723 | 17 | 78 | 8.0 | 16.1 | 0.00 | 0.00 | 0.08 | 83 | 1003.0 |
| 20260505075221 | 17 | 80 | 12.9 | 16.1 | 0.00 | 0.00 | 0.05 | 82 | 1003.1 |
| 20260505074719 | 17 | 66 | 8.0 | 16.1 | 0.00 | 0.00 | 0.05 | 82 | 1003.1 |
| 20260505074221 | 17 | 91 | 11.3 | 14.5 | 0.00 | 0.00 | 0.05 | 82 | 1003.4 |
| 20260505073720 | 17 | 75 | 8.0 | 14.5 | 0.00 | 0.00 | 0.05 | 82 | 1003.6 |
| 20260505073221 | 17 | 65 | 9.7 | 14.5 | 0.00 | 0.00 | 0.05 | 82 | 1003.5 |
| 20260505072722 | 17 | 121 | 8.0 | 14.5 | 0.00 | 0.00 | 0.05 | 83 | 1003.8 |
| 20260505072222 | 17 | 74 | 12.9 | 14.5 | 0.00 | 0.00 | 0.05 | 83 | 1003.9 |
| 20260505071721 | 17 | 61 | 9.7 | 14.5 | 0.00 | 0.00 | 0.05 | 83 | 1004.3 |
| 20260505071222 | 17 | 55 | 9.7 | 11.3 | 0.00 | 0.00 | 0.05 | 84 | 1004.5 |
| 20260505070722 | 17 | 74 | 4.8 | 14.5 | 0.00 | 0.00 | 0.05 | 84 | 1004.2 |
| 20260505070220 | 17 | 109 | 4.8 | 14.5 | 0.00 | 0.00 | 0.05 | 84 | 1004.0 |
| 20260505065721 | 17 | 76 | 4.8 | 14.5 | 0.00 | 0.00 | 0.05 | 84 | 1004.2 |
| 20260505065221 | 17 | 56 | 8.0 | 14.5 | 0.00 | 0.00 | 0.05 | 84 | 1004.4 |
| 20260505064720 | 17 | 72 | 4.8 | 9.7 | 0.00 | 0.00 | 0.05 | 84 | 1004.5 |
| 20260505064219 | 17 | 100 | 6.4 | 6.4 | 0.00 | 0.00 | 0.05 | 83 | 1004.6 |
| 20260505063719 | 17 | 0 | 0.0 | 8.0 | 0.00 | 0.00 | 0.05 | 82 | 1004.9 |
| 20260505063221 | 17 | 77 | 4.8 | 8.0 | 0.00 | 0.00 | 0.05 | 81 | 1004.7 |
| 20260505062720 | 17 | 59 | 8.0 | 8.0 | 0.00 | 0.00 | 0.00 | 79 | 1005.0 |
| 20260505062223 | 17 | 352 | 4.8 | 11.3 | 0.00 | 0.00 | 0.00 | 77 | 1005.5 |
| 20260505061721 | 17 | 53 | 4.8 | 14.5 | 0.00 | 0.00 | 0.00 | 78 | 1005.1 |
| 20260505061219 | 17 | 88 | 6.4 | 17.7 | 0.00 | 0.00 | 0.00 | 77 | 1004.9 |
| 20260505060719 | 17 | 94 | 9.7 | 17.7 | 0.00 | 0.00 | 0.00 | 77 | 1004.7 |
| 20260505060218 | 17 | 118 | 12.9 | 22.5 | 0.00 | 0.00 | 0.00 | 77 | 1004.6 |
| 20260505055719 | 18 | 118 | 11.3 | 22.5 | 0.00 | 0.00 | 0.00 | 77 | 1004.6 |
| 20260505055218 | 18 | 118 | 11.3 | 22.5 | 0.00 | 0.00 | 0.00 | 77 | 1004.5 |
| 20260505054717 | 18 | 119 | 14.5 | 17.7 | 0.00 | 0.00 | 0.00 | 76 | 1004.9 |
| 20260505054217 | 18 | 124 | 6.4 | 12.9 | 0.00 | 0.00 | 0.00 | 76 | 1005.4 |
| 20260505053718 | 18 | 134 | 4.8 | 8.0 | 0.00 | 0.00 | 0.00 | 76 | 1006.0 |
| 20260505053217 | 18 | 77 | 3.2 | 6.4 | 0.00 | 0.00 | 0.00 | 75 | 1006.3 |
| 20260505052718 | 18 | 93 | 1.6 | 6.4 | 0.00 | 0.00 | 0.00 | 76 | 1006.3 |
| 20260505052217 | 18 | 100 | 4.8 | 6.4 | 0.00 | 0.00 | 0.00 | 76 | 1006.4 |
| 20260505051719 | 18 | 28 | 3.2 | 6.4 | 0.00 | 0.00 | 0.00 | 75 | 1006.7 |
| 20260505051219 | 18 | 32 | 3.2 | 8.0 | 0.00 | 0.00 | 0.00 | 75 | 1006.5 |
| 20260505050719 | 18 | 56 | 6.4 | 8.0 | 0.00 | 0.00 | 0.00 | 75 | 1006.1 |
| 20260505050217 | 18 | 68 | 4.8 | 8.0 | 0.00 | 0.00 | 0.00 | 75 | 1005.7 |
| 20260505041718 | 18 | 97 | 1.6 | 4.8 | 0.00 | 0.00 | 0.00 | 74 | 1006.1 |
| 20260505041315 | 18 | 0 | 0.0 | 6.4 | 0.00 | 0.00 | 0.00 | 73 | 1006.2 |
| 20260505040917 | 18 | 104 | 1.6 | 6.4 | 0.00 | 0.00 | 0.00 | 73 | 1006.1 |
| 20260505040417 | 18 | 103 | 1.6 | 6.4 | 0.00 | 0.00 | 0.00 | 73 | 1006.2 |
| 20260505035918 | 18 | 111 | 3.2 | 6.4 | 0.00 | 0.00 | 0.00 | 72 | 1006.1 |
| 20260505035418 | 18 | 101 | 4.8 | 4.8 | 0.00 | 0.00 | 0.00 | 72 | 1006.3 |
| 20260505034916 | 18 | 111 | 3.2 | 4.8 | 0.00 | 0.00 | 0.00 | 71 | 1006.3 |
| 20260505034418 | 19 | 119 | 1.6 | 3.2 | 0.00 | 0.00 | 0.00 | 71 | 1006.4 |
| 20260505033916 | 19 | 119 | 1.6 | 3.2 | 0.00 | 0.00 | 0.00 | 71 | 1006.4 |
| 20260505033418 | 19 | 120 | 1.6 | 4.8 | 0.00 | 0.00 | 0.00 | 70 | 1006.4 |
| 20260505032915 | 19 | 0 | 0.0 | 4.8 | 0.00 | 0.00 | 0.00 | 70 | 1006.5 |
| 20260505032419 | 19 | 131 | 3.2 | 6.4 | 0.00 | 0.00 | 0.00 | 70 | 1006.5 |
| 20260505031917 | 19 | 128 | 3.2 | 8.0 | 0.00 | 0.00 | 0.00 | 70 | 1006.4 |
| 20260505031416 | 20 | 130 | 3.2 | 8.0 | 0.00 | 0.00 | 0.00 | 70 | 1006.4 |
| 20260505030915 | 20 | 131 | 4.8 | 9.7 | 0.00 | 0.00 | 0.00 | 69 | 1006.5 |
| 20260505030415 | 20 | 126 | 3.2 | 9.7 | 0.00 | 0.00 | 0.00 | 69 | 1006.5 |
| 20260505025937 | 20 | 147 | 6.4 | 8.0 | 0.00 | 0.00 | 0.00 | 69 | 1006.5 |
| 20260505025439 | 20 | 140 | 4.8 | 8.0 | 0.00 | 0.00 | 0.00 | 69 | 1006.5 |
| 20260505024940 | 20 | 140 | 4.8 | 6.4 | 0.00 | 0.00 | 0.00 | 69 | 1006.6 |
| 20260505024415 | 20 | 145 | 3.2 | 8.0 | 0.00 | 0.00 | 0.00 | 69 | 1006.6 |
| 20260505023940 | 20 | 0 | 0.0 | 8.0 | 0.00 | 0.00 | 0.00 | 69 | 1006.5 |
| 20260505023436 | 20 | 132 | 4.8 | 8.0 | 0.00 | 0.00 | 0.00 | 68 | 1006.5 |
| 20260505022915 | 20 | 150 | 3.2 | 8.0 | 0.00 | 0.00 | 0.00 | 68 | 1006.5 |
| 20260505022415 | 20 | 148 | 3.2 | 8.0 | 0.00 | 0.00 | 0.00 | 68 | 1006.3 |
| 20260505021937 | 20 | 157 | 4.8 | 8.0 | 0.00 | 0.00 | 0.00 | 68 | 1006.2 |
| 20260505021438 | 20 | 177 | 3.2 | 8.0 | 0.00 | 0.00 | 0.00 | 68 | 1006.1 |
| 20260505020942 | 20 | 169 | 1.6 | 8.0 | 0.00 | 0.00 | 0.00 | 68 | 1006.1 |
| 20260505020437 | 20 | 145 | 3.2 | 6.4 | 0.00 | 0.00 | 0.00 | 68 | 1006.0 |
| 20260505015939 | 20 | 142 | 1.6 | 8.0 | 0.00 | 0.00 | 0.00 | 68 | 1006.0 |
| 20260505015442 | 20 | 158 | 1.6 | 8.0 | 0.00 | 0.00 | 0.00 | 67 | 1006.0 |
| 20260505014939 | 21 | 142 | 3.2 | 8.0 | 0.00 | 0.00 | 0.00 | 67 | 1005.8 |
| 20260505014439 | 21 | 135 | 1.6 | 8.0 | 0.00 | 0.00 | 0.00 | 67 | 1005.7 |
| 20260505013938 | 21 | 155 | 4.8 | 6.4 | 0.00 | 0.00 | 0.00 | 67 | 1005.6 |
| 20260505013436 | 21 | 163 | 3.2 | 6.4 | 0.00 | 0.00 | 0.00 | 66 | 1005.7 |
| 20260505012944 | 21 | 159 | 3.2 | 6.4 | 0.00 | 0.00 | 0.00 | 66 | 1005.5 |
| 20260505012444 | 21 | 123 | 1.6 | 8.0 | 0.00 | 0.00 | 0.00 | 65 | 1005.5 |
| 20260505011944 | 21 | 149 | 4.8 | 11.3 | 0.00 | 0.00 | 0.00 | 65 | 1005.4 |
| 20260505011439 | 21 | 132 | 4.8 | 12.9 | 0.00 | 0.00 | 0.00 | 64 | 1005.4 |
| 20260505010941 | 21 | 138 | 4.8 | 14.5 | 0.00 | 0.00 | 0.00 | 64 | 1005.5 |
| 20260505010443 | 21 | 142 | 6.4 | 17.7 | 0.00 | 0.00 | 0.00 | 63 | 1005.1 |
| 20260505005941 | 21 | 159 | 9.7 | 17.7 | 0.00 | 0.00 | 0.00 | 63 | 1005.2 |
| 20260505005437 | 22 | 152 | 4.8 | 11.3 | 0.00 | 0.00 | 0.00 | 63 | 1005.1 |
| 20260505004938 | 22 | 163 | 3.2 | 11.3 | 0.00 | 0.00 | 0.00 | 62 | 1005.2 |
| 20260505004439 | 22 | 136 | 3.2 | 12.9 | 0.00 | 0.00 | 0.00 | 62 | 1005.2 |
| 20260505003941 | 22 | 144 | 6.4 | 12.9 | 0.00 | 0.00 | 0.00 | 62 | 1005.1 |
| 20260505003439 | 22 | 158 | 4.8 | 14.5 | 0.00 | 0.00 | 0.00 | 61 | 1005.2 |
| 20260505002943 | 22 | 152 | 11.3 | 17.7 | 0.00 | 0.00 | 0.00 | 61 | 1005.3 |
| 20260505002441 | 22 | 140 | 6.4 | 17.7 | 0.00 | 0.00 | 0.00 | 61 | 1005.3 |
| 20260505001937 | 22 | 172 | 11.3 | 16.1 | 0.00 | 0.00 | 0.00 | 60 | 1005.4 |
| 20260505001442 | 22 | 144 | 9.7 | 17.7 | 0.00 | 0.00 | 0.00 | 59 | 1005.4 |
| 20260505000944 | 22 | 175 | 4.8 | 19.3 | 0.00 | 0.00 | 0.00 | 60 | 1005.4 |
| 20260505000439 | 23 | 163 | 11.3 | 19.3 | 0.00 | 0.00 | 0.00 | 59 | 1005.4 |
| 20260504235939 | 23 | 161 | 8.0 | 20.9 | 0.00 | 0.00 | 0.00 | 59 | 1005.5 |
| 20260504235442 | 23 | 170 | 11.3 | 20.9 | 0.00 | 0.00 | 0.00 | 59 | 1005.4 |
| 20260504234943 | 23 | 132 | 12.9 | 19.3 | 0.00 | 0.00 | 0.00 | 59 | 1005.4 |
| 20260504234441 | 23 | 146 | 12.9 | 22.5 | 0.00 | 0.00 | 0.00 | 59 | 1005.4 |
| 20260504233940 | 23 | 150 | 14.5 | 30.6 | 0.00 | 0.00 | 0.00 | 58 | 1005.5 |
| 20260504233438 | 23 | 156 | 11.3 | 30.6 | 0.00 | 0.00 | 0.00 | 58 | 1005.6 |
| 20260504232936 | 23 | 184 | 27.4 | 19.3 | 0.00 | 0.00 | 0.00 | 58 | 1005.5 |
| 20260504232442 | 23 | 150 | 8.0 | 19.3 | 0.00 | 0.00 | 0.00 | 59 | 1005.5 |
| 20260504231940 | 23 | 160 | 9.7 | 17.7 | 0.00 | 0.00 | 0.00 | 58 | 1005.6 |
| 20260504231445 | 23 | 145 | 4.8 | 16.1 | 0.00 | 0.00 | 0.00 | 57 | 1005.5 |
| 20260504230942 | 23 | 142 | 6.4 | 16.1 | 0.00 | 0.00 | 0.00 | 58 | 1005.5 |
| 20260504230437 | 23 | 126 | 4.8 | 17.7 | 0.00 | 0.00 | 0.00 | 57 | 1005.5 |
| 20260504230015 | 23 | 138 | 11.3 | 17.7 | 0.00 | 0.00 | 0.00 | 56 | 1005.4 |
| 20260504225541 | 24 | 134 | 12.9 | 17.7 | 0.00 | 0.00 | 0.00 | 56 | 1005.4 |
| 20260504225040 | 24 | 142 | 8.0 | 19.3 | 0.00 | 0.00 | 0.00 | 56 | 1005.6 |
| 20260504224540 | 24 | 167 | 8.0 | 24.1 | 0.00 | 0.00 | 0.00 | 55 | 1005.6 |
| 20260504224044 | 24 | 177 | 16.1 | 25.7 | 0.00 | 0.00 | 0.00 | 55 | 1005.5 |
| 20260504223541 | 24 | 159 | 9.7 | 25.7 | 0.00 | 0.00 | 0.00 | 53 | 1005.6 |
| 20260504223037 | 24 | 174 | 12.9 | 20.9 | 0.00 | 0.00 | 0.00 | 53 | 1005.7 |
| 20260504222537 | 25 | 156 | 11.3 | 20.9 | 0.00 | 0.00 | 0.00 | 53 | 1005.7 |
| 20260504222040 | 25 | 179 | 9.7 | 20.9 | 0.00 | 0.00 | 0.00 | 54 | 1005.7 |
| 20260504221539 | 25 | 204 | 11.3 | 24.1 | 0.00 | 0.00 | 0.00 | 52 | 1005.7 |
| 20260504221037 | 25 | 174 | 16.1 | 24.1 | 0.00 | 0.00 | 0.00 | 54 | 1005.8 |
| 20260504220542 | 25 | 186 | 12.9 | 22.5 | 0.00 | 0.00 | 0.00 | 53 | 1005.9 |
| 20260504220043 | 25 | 138 | 11.3 | 22.5 | 0.00 | 0.00 | 0.00 | 52 | 1006.0 |
| 20260504215536 | 25 | 177 | 17.7 | 22.5 | 0.00 | 0.00 | 0.00 | 53 | 1006.0 |
| 20260504215039 | 25 | 195 | 9.7 | 22.5 | 0.00 | 0.00 | 0.00 | 53 | 1005.8 |
| 20260504214538 | 25 | 156 | 17.7 | 27.4 | 0.00 | 0.00 | 0.00 | 54 | 1005.8 |
| 20260504214039 | 25 | 148 | 12.9 | 27.4 | 0.00 | 0.00 | 0.00 | 51 | 1005.9 |
| 20260504213541 | 25 | 145 | 14.5 | 27.4 | 0.00 | 0.00 | 0.00 | 53 | 1006.2 |
| 20260504213142 | 25 | 180 | 16.1 | 19.3 | 0.00 | 0.00 | 0.00 | 51 | 1006.2 |
| 20260504212642 | 25 | 205 | 9.7 | 24.1 | 0.00 | 0.00 | 0.00 | 51 | 1006.2 |
| 20260504212129 | 25 | 171 | 12.9 | 25.7 | 0.00 | 0.00 | 0.00 | 51 | 1006.3 |
| 20260504211641 | 26 | 200 | 11.3 | 25.7 | 0.00 | 0.00 | 0.00 | 50 | 1006.4 |
| 20260504211138 | 26 | 183 | 19.3 | 25.7 | 0.00 | 0.00 | 0.00 | 49 | 1006.6 |
| 20260504210640 | 26 | 186 | 12.9 | 25.7 | 0.00 | 0.00 | 0.00 | 49 | 1006.6 |
| 20260504210141 | 26 | 209 | 11.3 | 24.1 | 0.00 | 0.00 | 0.00 | 54 | 1006.7 |
| 20260504205638 | 26 | 230 | 17.7 | 22.5 | 0.00 | 0.00 | 0.00 | 49 | 1006.7 |
| 20260504205142 | 26 | 189 | 3.2 | 25.7 | 0.00 | 0.00 | 0.00 | 52 | 1006.7 |
| 20260504204644 | 26 | 163 | 11.3 | 25.7 | 0.00 | 0.00 | 0.00 | 50 | 1006.9 |
| 20260504204140 | 26 | 184 | 12.9 | 22.5 | 0.00 | 0.00 | 0.00 | 52 | 1007.0 |
| 20260504203640 | 26 | 167 | 14.5 | 24.1 | 0.00 | 0.00 | 0.00 | 50 | 1007.0 |
| 20260504203138 | 26 | 205 | 19.3 | 25.7 | 0.00 | 0.00 | 0.00 | 49 | 1007.1 |
| 20260504202644 | 26 | 182 | 17.7 | 27.4 | 0.00 | 0.00 | 0.00 | 49 | 1007.3 |
| 20260504202138 | 26 | 187 | 16.1 | 27.4 | 0.00 | 0.00 | 0.00 | 51 | 1007.3 |
| 20260504201640 | 26 | 198 | 12.9 | 25.7 | 0.00 | 0.00 | 0.00 | 49 | 1007.3 |
| 20260504201138 | 26 | 238 | 17.7 | 27.4 | 0.00 | 0.00 | 0.00 | 49 | 1007.6 |
| 20260504200642 | 26 | 196 | 9.7 | 27.4 | 0.00 | 0.00 | 0.00 | 50 | 1007.6 |
| 20260504200137 | 26 | 184 | 4.8 | 24.1 | 0.00 | 0.00 | 0.00 | 48 | 1007.6 |
| 20260504195636 | 26 | 212 | 22.5 | 24.1 | 0.00 | 0.00 | 0.00 | 49 | 1007.8 |
| 20260504195138 | 26 | 200 | 16.1 | 32.2 | 0.00 | 0.00 | 0.00 | 49 | 1008.0 |
| 20260504194643 | 26 | 225 | 12.9 | 32.2 | 0.00 | 0.00 | 0.00 | 48 | 1008.0 |
| 20260504194138 | 25 | 225 | 17.7 | 33.8 | 0.00 | 0.00 | 0.00 | 52 | 1008.0 |
| 20260504193641 | 25 | 215 | 24.1 | 33.8 | 0.00 | 0.00 | 0.00 | 50 | 1008.1 |
| 20260504193136 | 25 | 189 | 11.3 | 27.4 | 0.00 | 0.00 | 0.00 | 49 | 1008.2 |
| 20260504192641 | 25 | 200 | 12.9 | 27.4 | 0.00 | 0.00 | 0.00 | 50 | 1008.2 |
| 20260504192140 | 25 | 201 | 17.7 | 30.6 | 0.00 | 0.00 | 0.00 | 48 | 1008.4 |
| 20260504191639 | 25 | 182 | 17.7 | 35.4 | 0.00 | 0.00 | 0.00 | 50 | 1008.5 |
| 20260504191141 | 25 | 209 | 25.7 | 35.4 | 0.00 | 0.00 | 0.00 | 50 | 1008.5 |
| 20260504190644 | 25 | 205 | 20.9 | 30.6 | 0.00 | 0.00 | 0.00 | 49 | 1008.5 |
| 20260504190139 | 25 | 229 | 19.3 | 29.0 | 0.00 | 0.00 | 0.00 | 49 | 1008.7 |
| 20260504185641 | 25 | 200 | 16.1 | 29.0 | 0.00 | 0.00 | 0.00 | 50 | 1008.6 |
| 20260504185142 | 25 | 206 | 11.3 | 29.0 | 0.00 | 0.00 | 0.00 | 50 | 1008.8 |
| 20260504184636 | 25 | 233 | 11.3 | 30.6 | 0.00 | 0.00 | 0.00 | 53 | 1008.8 |
| 20260504184138 | 25 | 244 | 19.3 | 30.6 | 0.00 | 0.00 | 0.00 | 50 | 1008.8 |
| 20260504183639 | 25 | 255 | 17.7 | 29.0 | 0.00 | 0.00 | 0.00 | 49 | 1008.8 |
| 20260504183139 | 25 | 233 | 12.9 | 29.0 | 0.00 | 0.00 | 0.00 | 50 | 1009.1 |
| 20260504182637 | 24 | 201 | 6.4 | 30.6 | 0.00 | 0.00 | 0.00 | 51 | 1009.0 |
| 20260504182138 | 24 | 215 | 17.7 | 30.6 | 0.00 | 0.00 | 0.00 | 51 | 1009.1 |
| 20260504181643 | 24 | 193 | 16.1 | 32.2 | 0.00 | 0.00 | 0.00 | 49 | 1009.3 |
| 20260504181139 | 24 | 163 | 20.9 | 32.2 | 0.00 | 0.00 | 0.00 | 49 | 1009.4 |
| 20260504180638 | 24 | 204 | 22.5 | 33.8 | 0.00 | 0.00 | 0.00 | 50 | 1009.4 |
| 20260504180140 | 24 | 185 | 19.3 | 33.8 | 0.00 | 0.00 | 0.00 | 50 | 1009.6 |
| 20260504175639 | 24 | 185 | 19.3 | 27.4 | 0.00 | 0.00 | 0.00 | 49 | 1009.6 |
| 20260504175142 | 24 | 201 | 12.9 | 29.0 | 0.00 | 0.00 | 0.00 | 50 | 1009.6 |
| 20260504174640 | 24 | 196 | 12.9 | 29.0 | 0.00 | 0.00 | 0.00 | 49 | 1009.6 |
| 20260504174141 | 24 | 240 | 16.1 | 29.0 | 0.00 | 0.00 | 0.00 | 51 | 1009.7 |
| 20260504173639 | 24 | 196 | 17.7 | 29.0 | 0.00 | 0.00 | 0.00 | 50 | 1009.8 |
| 20260504173136 | 24 | 182 | 16.1 | 30.6 | 0.00 | 0.00 | 0.00 | 52 | 1009.8 |
| 20260504172627 | 24 | 219 | 17.7 | 38.6 | 0.00 | 0.00 | 0.00 | 52 | 1009.9 |
| 20260504172129 | 24 | 183 | 16.1 | 38.6 | 0.00 | 0.00 | 0.00 | 50 | 1009.9 |
| 20260504171631 | 24 | 143 | 9.7 | 30.6 | 0.00 | 0.00 | 0.00 | 54 | 1010.0 |
| 20260504171126 | 23 | 240 | 19.3 | 30.6 | 0.00 | 0.00 | 0.00 | 52 | 1009.9 |
| 20260504170625 | 23 | 181 | 9.7 | 33.8 | 0.00 | 0.00 | 0.00 | 53 | 1010.1 |